Regional Weather Roundup
Issued by NWS Kansas City/Pleasant Hill, MO

Home | Current Version | Previous Version | Graphics & Text | Print | Product List | Glossary Off
Versions: 1 2 3 4 5 6 7 8 9 10 11 12 13 14 15 16 17 18 19 20 21 22 23 24 25 26 27 28 29 30 31 32 33 34 35 36 37 38 39 40 41 42 43 44 45 46 47 48 49 50

000
ASUS43 KEAX 231604
RWREAX

WEATHER ROUNDUP FOR EASTERN KANSAS AND NORTHWEST MISSOURI
NATIONAL WEATHER SERVICE KANSAS CITY/PLEASANT HILL MO
1000 AM CST SUN NOV 23 2014

KSZ040-057-103>105-MOZ028-029-037-043-231700-
...KANSAS CITY METROPOLITAN AREA...

CITY           SKY/WX    TMP DP  RH WIND       PRES   REMARKS
K.C. INTL      FOG       54  54 100 S7        29.48F VSB 3/4
K.C. DOWNTOWN  CLOUDY    56  54  93 S5        29.48F FOG
LEES SUMMIT    NOT AVBL
OLATHE - IXD   CLOUDY    55  54  96 S7        29.49F
OLATHE - OJC   CLOUDY    55  55 100 S5        29.48F FOG
LAWRENCE       CLOUDY    56  52  86 CALM      29.49S FOG

$$

MOZ001>008-011>017-020>025-030>033-038>040-044>046-053-054-231700-
...NORTHERN AND CENTRAL MISSOURI...

CITY           SKY/WX    TMP DP  RH WIND       PRES   REMARKS
ST. JOSEPH     CLOUDY    54  53  97 S3        29.48F FOG
MOSBY          DRIZZLE   54  54 100 CALM      29.50F
WARRENSBURG    CLOUDY    54  52  94 SE8       29.50F
WHITEMAN AFB   CLOUDY    56  53  91 S13G20    29.50F
CLINTON        CLOUDY    55  55 100 S9        29.52F FOG
SEDALIA        CLOUDY    57  53  86 S14       29.53F
WARSAW         NOT AVBL
MARSHALL       CLOUDY    57  55  94 S10       29.54
CHILLICOTHE      N/A     54  53  97 CALM      29.52F
MOBERLY        LGT RAIN  54  50  87 S13       29.55F
KIRKSVILLE     LGT RAIN  53  53 100 S14       29.54F FOG

$$

MOZ041-047>049-056>058-063>065-088>090-097-231700-
...EASTERN AND SOUTHERN MISSOURI...

CITY           SKY/WX    TMP DP  RH WIND       PRES   REMARKS
ST. LOUIS INTL LGT RAIN  56  51  84 SE15      29.64F
SPIRIT OF STL  RAIN      53  51  93 SE9       29.62F FOG
COLUMBIA       LGT RAIN  53  53 100 SE12      29.56F FOG
JEFFERSON CITY CLOUDY    54  52  93 SE6       29.57F
MEXICO         LGT RAIN N/A N/A N/A S10       29.57F
ROLLA          RAIN      53  51  93 S9        29.57F FOG
LEBANON        CLOUDY    54  52  94 S10       29.55F
OSAGE BEACH    CLOUDY    55  52  88 SE6       29.55F
SPRINGFIELD    CLOUDY    55  53  93 SE16      29.51F FOG
BRANSON        CLOUDY    55  54  94 SE8       29.54F FOG
NEVADA         CLOUDY    57  54  88 SE8       29.51F
JOPLIN         CLOUDY    60  55  83 S10       29.49F
WEST PLAINS    LGT RAIN  54  52  93 SE10      29.59F

$$

IAZ060-094-KSZ022-034>040-054-083-096-NEZ052-066-093-231700-
...KANSAS...SOUTHEAST NEBRASKA AND IOWA...

CITY           SKY/WX    TMP DP  RH WIND       PRES   REMARKS
TOPEKA         LGT RAIN  57  55  93 SE5       29.47F FOG
MANHATTAN      CLOUDY    55  54  96 CALM      29.47S
EMPORIA        LGT RAIN  55  53  93 SE5       29.46F FOG
CHANUTE        CLOUDY    59  55  87 S13       29.46F
WICHITA        CLOUDY    54  50  86 SW7       29.45S
OMAHA          CLOUDY    53  52  96 S5        29.47F
LINCOLN        CLOUDY    48  39  71 N23G31    29.51R
FALLS CITY     CLOUDY    54  53  97 S6        29.47S FOG
LAMONI         CLOUDY    51  51 100 SE7       29.49F FOG
DES MOINES     CLOUDY    53  50  89 S6        29.50F

$$




USA.gov is the U.S. government's official web portal to all federal, state and local government web resources and services.